Regional Weather Roundup
Issued by NWS

Home | Current Version | Previous Version | Graphics & Text | Print | Product List | Glossary On
Versions: 1 2 3 4 5 6 7 8 9 10 11 12 13 14 15 16 17 18 19 20 21 22 23 24 25 26 27 28 29 30 31 32 33 34 35 36 37 38 39 40 41 42 43 44 45 46 47 48 49 50
744
ASUS43 KDTX 111301
RWRMI
MICHIGAN HOURLY REGIONAL WEATHER ROUNDUP
NATIONAL WEATHER SERVICE DETROIT/PONTIAC MI
800 AM EST THU FEB 11 2016

NOTE: "FAIR" INDICATES FEW OR NO CLOUDS BELOW 12,000 FEET WITH NO
SIGNIFICANT WEATHER AND/OR OBSTRUCTION TO VISIBILITY.

MIZ047>049-052>055-059>063-066>070-074>076-081>083-111400-
SOUTHEAST LOWER MICHIGAN

CITY           SKY/WX    TMP DP  RH WIND       PRES   REMARKS
ADRIAN         CLEAR     12   6  77 W6        30.17R WCI   3
ALMA           CLEAR     12   8  83 W7        30.14R WCI   1
ANN ARBOR      MOCLDY     7   3  84 W8        30.14R WCI  -6
BAD AXE        CLOUDY     9   2  73 NW10      30.11R WCI  -5
CARO           CLOUDY    10   3  72 NW7       30.12R WCI   0
DETROIT CITY   CLEAR     10   3  73 W6        30.14R WCI   0
DETROIT        MOCLDY    12   5  73 W9        30.16R WCI   0
FLINT          CLOUDY    11   4  73 W7        30.13R WCI   0
GROSSE ILE     MOCLDY    12   7  79 W9        30.14R WCI   0
HILLSDALE      PTCLDY    11   6  79 W8        30.13R WCI   0
HOWELL         PTCLDY     8   4  84 W5        30.12R WCI   0

CITY           SKY/WX    TMP DP  RH WIND       PRES   REMARKS
JACKSON        CLEAR     10   4  76 W8        30.14R WCI  -2
LAMBERTVILLE   CLEAR     12   6  76 W5        30.18R WCI   4
LANSING        CLEAR     12   3  67 W9        30.15R WCI   0
LAPEER         CLOUDY     9   6  87 NW7       30.11R WCI  -2
MASON          CLEAR     11   2  67 W7        30.14R WCI   0
MONROE         PTCLDY    10   4  77 W6        30.16R WCI   1
MT. CLEMENS    PTCLDY    10   4  78 W10       30.11R WCI  -4
PONTIAC        MOCLDY     6   2  83 W8        30.10R WCI  -7
PORT HOPE        N/A     11   4  73 NW18G29   30.08R WCI  -7
PORT HURON     MOCLDY     9   3  78 NW6       30.12R WCI  -1
TRI CITIES     CLOUDY    13   5  70 NW6       30.15R WCI   4
MIDLAND        CLOUDY    10   4  75 CALM      30.14R
TROY           CLEAR     11   6  80 W7        30.15R WCI   0
SAGINAW HB     CLOUDY    12   9  85 NW6       30.14R WCI   3
$$
MIZ043>046-050>051-056>058-064>065-071>073-077>080-111400-
SOUTHWEST LOWER MICHIGAN

CITY           SKY/WX    TMP DP  RH WIND       PRES   REMARKS
BATTLE CREEK   CLOUDY    11   6  81 W7        30.17R WCI   0
BENTON HARBOR  FLURRIES  19   8  62 VRB7      30.21R WCI  10
BIG RAPIDS     LGT SNOW  12   9  88 W6        30.12R WCI   3
COLDWATER      CLOUDY    14   8  78 W3        30.16R
FREMONT        CLOUDY    14   8  78 W5        30.17R WCI   6
HOLLAND        LGT SNOW  15  10  80 N3        30.19R VSB 1
GRAND RAPIDS   MOCLDY    16   6  65 NW10      30.17R WCI   4
IONIA          CLOUDY    14   5  67 W7        30.15R WCI   4
KALAMAZOO      FLURRIES  14   7  73 NW6       30.18R WCI   5
LUDINGTON      LGT SNOW  16   7  68 NW9G16    30.19R WCI   4
MARSHALL       CLOUDY    12   7  82 W6        30.16R WCI   2
MOUNT PLEASANT PTCLDY    12   5  75 NW5       30.14R WCI   4
MUSKEGON       FLURRIES  16   8  71 N7        30.20R WCI   6
SOUTH HAVEN    CLOUDY    16  10  75 E6        30.20R WCI   8
$$
MIZ016>042-111400-
NORTHERN LOWER MICHIGAN

CITY           SKY/WX    TMP DP  RH WIND       PRES   REMARKS
ALPENA         LGT SNOW   5  -1  76 NW10      30.12R WCI -10
BEAVER ISLAND  CLOUDY    10   3  74 N9G17     30.16R WCI  -3
BELLAIRE       CLOUDY    11   3  69 NW3       30.16R
CADILLAC       MOCLDY     9   4  79 NW3       30.08R
CHARLEVOIX     CLOUDY    12   4  71 N20G26    30.17R HAZE    WCI  -6
FRANKFORT      FLURRIES  17   8  68 NW8       30.16R WCI   6
GAYLORD        CLOUDY     4  -2  76 CALM      30.07R
GRAYLING       CLOUDY    -7 -11  81 CALM      30.10R
HARBOR SPRINGS CLOUDY     4  -1  79 N3        30.15R
HOUGHTON LAKE  MOCLDY     5   0  79 CALM      30.09R
MANISTEE       CLOUDY    16   1  53 N10G21    30.16R WCI   3
OSCODA         MOCLDY    -3  -7  83 W6        30.12R WCI -15
PELLSTON       MOCLDY    -1  -5  82 CALM      30.16R
ROGERS CITY    LGT SNOW   5   0  79 NW14G30   30.13R VSB 3/4 WCI -12
TRAVERSE CITY  FLURRIES  16   5  62 N13G20    30.14R WCI   2
$$
MIZ007>008-015-111400-
EASTERN UPPER MICHIGAN

CITY           SKY/WX    TMP DP  RH WIND       PRES   REMARKS
KINROSS        CLOUDY    -6  -9  84 N7        30.14R WCI -20
MACKINAC ISLAN CLOUDY     1  -3  83 N3        30.15R
NEWBERRY       LGT SNOW   4   1  87 NW3       30.13R VSB 1
S. S. MARIE    CLEAR     -8 -16  67 N6        30.15R WCI -21
$$
MIZ004>006-011>014-085-111400-
CENTRAL UPPER MICHIGAN

CITY           SKY/WX    TMP DP  RH WIND       PRES   REMARKS
MANISTIQUE     LGT SNOW   6   3  86 CALM      30.15R
ESCANABA       CLEAR      7   0  72 NW9       30.19R WCI  -7
MENOMINEE      CLEAR      3  -4  72 NW6       30.22R WCI  -8
SAWYER-GWINN   CLOUDY     7   0  72 NW12      30.13R WCI  -9
$$
MIZ001>003-009>011-084-111400-
WESTERN UPPER MICHIGAN

CITY           SKY/WX    TMP DP  RH WIND       PRES   REMARKS
IRON MOUNTAIN  CLOUDY     4  -4  69 NW8       30.16R WCI  -9
HOUGHTON       FLURRIES   7   1  76 NW13      30.15R WCI  -9
COPPER HARBOR    N/A     11   4  73 N18       30.17R WCI  -7
IRONWOOD       CLOUDY     3   3 100 W10       30.17S WCI -12
$$

ABBREVIATIONS USED IN REMARKS
   TC - TEMPERATURE IN CELSIUS
  WCI - WIND CHILL INDEX
   HX - HEAT INDEX
  VSB - VISIBILITY





USA.gov is the U.S. government's official web portal to all federal, state and local government web resources and services.